Inquirer Daily News

Weather

Get conditions and forecasts for any City, State, ZIP code or Country:  
Trenton, NJ
on Sunday, March 3, 2013

Sunday
Previous Day Next Day
Daily Summary
 ActualAverageRecord
Temperature
Mean Temperature °F 38°F  
Max Temperature 38°F 47°F 72°F (1991)
Min Temperature 27°F 29°F 5°F (1868)
Degree Days
Heating Degree Days 32 27  
Month to date heating degree days 88 83  
Since 1 July heating degree days 3689 3897  
Cooling Degree Days 0 0  
Month to date cooling degree days 0 0  
Year to date cooling degree days 0 0  
Moisture
Dew Point 17°F   
Average Humidity 55    
Maximum Humidity 63    
Minimum Humidity 47    
Precipitation
Precipitation 0.00 in 0.12 in 1.30 in (1991)
Month to date precipitation T 0.35  
Year to date precipitation 4.62 5.82  
Wind
Wind Speed 10 mph   
Max Wind Speed 18 mph   
Max Gust Speed 24 mph   
Visibility 10 miles   
Events     

Key: T is trace of precipitation, MM is missing value
Source: NWS Daily Summary
Time(EST)TemperatureDew PointHumidity Pressure Visibility Wind DirectionWind SpeedGust SpeedPrecipitationEvents Conditions
12:53 AM 30.0°F 18.0°F 61% 29.75 in 10.0 miles NNW 6.9 mph 17.3 mph N/A   Overcast
1:53 AM 30.0°F 18.0°F 61% 29.75 in 10.0 miles North 8.1 mph - N/A   Overcast
2:53 AM 28.9°F 17.1°F 61% 29.74 in 10.0 miles NNW 5.8 mph - N/A   Scattered Clouds
3:53 AM 28.0°F 17.1°F 63% 29.74 in 10.0 miles NNW 10.4 mph - N/A   Partly Cloudy
4:53 AM 28.0°F 16.0°F 61% 29.75 in 10.0 miles NNW 10.4 mph - N/A   Overcast
5:53 AM 27.0°F 16.0°F 63% 29.75 in 10.0 miles NNW 8.1 mph - N/A   Mostly Cloudy
7:53 AM 28.0°F 17.1°F 63% 29.76 in 10.0 miles NNW 9.2 mph - N/A   Scattered Clouds
8:53 AM 30.9°F 17.1°F 57% 29.76 in 10.0 miles NNW 11.5 mph 21.9 mph N/A   Overcast
9:53 AM 30.0°F 17.1°F 59% 29.75 in 10.0 miles NNW 8.1 mph - N/A   Overcast
10:53 AM 33.1°F 16.0°F 50% 29.74 in 10.0 miles North 12.7 mph 23.0 mph N/A   Overcast
11:53 AM 36.0°F 18.0°F 48% 29.73 in 10.0 miles North 12.7 mph 21.9 mph N/A   Overcast
12:53 PM 36.0°F 17.1°F 46% 29.71 in 10.0 miles North 15.0 mph 24.2 mph N/A   Overcast
1:53 PM 36.0°F 17.1°F 46% 29.70 in 10.0 miles NNW 11.5 mph 19.6 mph N/A   Overcast
2:53 PM 36.0°F 17.1°F 46% 29.70 in 10.0 miles North 13.8 mph 21.9 mph N/A   Overcast
3:53 PM 35.1°F 17.1°F 48% 29.70 in 10.0 miles North 16.1 mph 23.0 mph N/A   Mostly Cloudy
5:53 PM 34.0°F 17.1°F 50% 29.72 in 10.0 miles North 11.5 mph 19.6 mph N/A   Partly Cloudy
6:53 PM 34.0°F 17.1°F 50% 29.74 in 10.0 miles North 6.9 mph - N/A   Overcast
7:53 PM 33.1°F 17.1°F 52% 29.75 in 10.0 miles North 4.6 mph - N/A   Overcast
8:53 PM 32.0°F 17.1°F 54% 29.77 in 10.0 miles North 6.9 mph - N/A   Overcast
9:53 PM 32.0°F 17.1°F 54% 29.78 in 10.0 miles North 13.8 mph 21.9 mph N/A   Scattered Clouds
10:53 PM 30.9°F 17.1°F 57% 29.78 in 10.0 miles North 10.4 mph - N/A   Clear
11:53 PM 30.0°F 15.1°F 54% 29.79 in 10.0 miles North 9.2 mph 18.4 mph N/A   Mostly Cloudy
Astronomy
Sunrise:06:29 AM (EST) Moon Rise:No Moon Rise/
Sunset:05:53 PM (EST) Moon Set:09:41 AM (EST)3/3
Moon Phase
Mar. 03 Mar. 04 Mar. 11 Mar. 19 Mar. 27

Copyright © 2014 The Weather Underground, Inc.